Regional Weather Roundup
Issued by NWS Raleigh/Durham, NC

Home | Current Version | Previous Version | Text Only | Print | Product List | Glossary On
Versions: 1 2 3 4 5 6 7 8 9 10 11 12 13 14 15 16 17 18 19 20 21 22 23 24 25 26 27 28 29 30 31 32 33 34 35 36 37 38 39 40 41 42 43 44 45 46 47 48 49 50
000
ASUS42 KRAH 212310
RWRRAH
NORTH CAROLINA WEATHER ROUNDUP
NATIONAL WEATHER SERVICE RALEIGH NC
700 PM EDT THU AUG 21 2014

NOTE: "FAIR" INDICATES FEW OR NO CLOUDS BELOW 12,000 FEET WITH NO
SIGNIFICANT WEATHER AND/OR OBSTRUCTIONS TO VISIBILITY.

NCZ001-053-055-056-065-067-220000-
WESTERN NORTH CAROLINA

CITY           SKY/WX    TMP DP  RH WIND       PRES   REMARKS
ASHEVILLE      MOSUNNY   79  68  69 S3        30.18R
JEFFERSON      CLOUDY    76  62  63 W5        30.23S
MORGANTON      PTSUNNY   86  67  51 SW3       30.15R
HICKORY        PTSUNNY   86  70  58 VRB3      30.10R
RUTHERFORDTON  MOSUNNY   85  73  66 CALM      30.11R
MOUNT AIRY     MOSUNNY   84  74  72 CALM      30.10S
BOONE          PTSUNNY   77  64  63 W8        30.24R
$$

NCZ021-022-025-041-071-084-088-220000-
CENTRAL NORTH CAROLINA

CITY           SKY/WX    TMP DP  RH WIND       PRES   REMARKS
CHARLOTTE      MOSUNNY   88  64  44 SW5       30.08R
GREENSBORO     PTSUNNY   85  69  58 SW6       30.07R
WINSTON-SALEM  PTSUNNY   86  67  52 SW5       30.09R
RALEIGH-DURHAM PTSUNNY   86  68  54 NW3       30.04R
FORT BRAGG     MOSUNNY   89  68  48 N5        30.02S
FAYETTEVILLE   MOSUNNY   92  66  42 N6        30.02R
BURLINGTON     PTSUNNY   87  66  49 CALM      30.05R
LAURINBURG     SUNNY     91  65  41 N3        30.03S
$$

NCZ011-015-027-028-043-044-047-080-103-220000-
NORTHEASTERN NORTH CAROLINA

CITY           SKY/WX    TMP DP  RH WIND       PRES   REMARKS
ROCKY MT-WILSO MOCLDY    88  71  57 W3        30.01S
GREENVILLE     MOCLDY    88  77  70 CALM      30.01F HX 100
WASHINGTON     PTCLDY    86  74  68 CALM      30.00F
ELIZABETH CITY CLOUDY    83  76  79 E3        30.00F
MANTEO         PTCLDY    82  72  69 S6        30.00F
CAPE HATTERAS  PTCLDY    81  74  79 SW3       30.01F
$$

NCZ078-087-090-091-093-098-101-220000-
SOUTHEASTERN NORTH CAROLINA

CITY           SKY/WX    TMP DP  RH WIND       PRES   REMARKS
LUMBERTON      SUNNY     90  67  46 W5        30.01S
GOLDSBORO      PTCLDY    89  74  61 W6        29.99F HX  97
KINSTON        PTCLDY    88  73  62 N3        30.01F HX  96
KENANSVILLE    CLEAR     84  74  72 CALM      30.02S
NEW BERN       PTCLDY    87  76  69 S3        30.01S HX  97
CHERRY POINT   PTCLDY    83  72  69 S3        30.01F
BEAUFORT       PTCLDY    84  73  69 SW5       30.01S
JACKSONVILLE   CLEAR     87  76  69 SW6       30.00S HX  97
WILMINGTON     PTCLDY    86  71  60 W6        30.02R
$$




USA.gov is the U.S. government's official web portal to all federal, state and local government web resources and services.